Sussex, NJ

7:33 PM EDT on July 24, 2017 (GMT -0400)
Sussex

Weather History for KFWN - July, 2013

Change the Weather History Date:

Wednesday, July 17, 2013

  Actual Average Record
Temperature  
Mean Temperature 78 °F -  
Max Temperature 93 °F 84 °F 99 °F (1988)
Min Temperature 66 °F 59 °F 45 °F (1966)
Cooling Degree Days 14    
Growing Degree Days 28 (Base 50)    
Moisture  
Dew Point 69 °F    
Average Humidity 74    
Maximum Humidity 97    
Minimum Humidity 45    
Precipitation  
Precipitation 0.00 in - - ()
Sea Level Pressure  
Sea Level Pressure 30.16 in    
Wind  
Wind Speed 1 mph (NW)    
Max Wind Speed 6 mph    
Max Gust Speed -    
Visibility 8 miles    
Events      
Averages and records for this station are not official NWS values.
T = Trace of Precipitation, MM = Missing Value Source: NWS Daily Summary

Daily Weather History Graph

Daily Weather History Graph

Search for Another Location

Airport or City:

Trip Planner

Search our weather history database for the weather conditions in past years. The results will help you decide how hot, cold, wet, or windy it might be!

Date:

Astronomy

Jul. 17, 2013 Rise Set
Actual Time 5:40 AM EDT 8:28 PM EDT
Civil Twilight 5:07 AM EDT 9:00 PM EDT
Nautical Twilight 4:27 AM EDT 9:41 PM EDT
Astronomical Twilight 3:39 AM EDT 10:28 PM EDT
Moon 3:13 PM EDT (7/17) 12:47 AM EDT (7/17)
Length of Visible Light 15h 52m
Length of Day
14h 47m
Waxing Gibbous, 67% of the Moon is Illuminated
Jul 17
Waxing Gibbous
Jul 22
Full
Jul 29
Last Quarter
Aug 6
New
Aug 14
First Quarter

Hourly Weather History & Observations

Time (EDT) Temp. Heat Index Dew Point Humidity Pressure Visibility Wind Dir Wind Speed Gust Speed Precip Events Conditions
12:53 AM 71.1 °F - 69.1 °F 93% 30.19 in 8.0 mi Calm Calm - N/A   Clear
1:53 AM 70.0 °F - 68.0 °F 93% 30.19 in 6.0 mi Calm Calm - N/A   Clear
2:53 AM 69.1 °F - 68.0 °F 96% 30.18 in 4.0 mi Calm Calm - N/A   Clear
3:53 AM 68.0 °F - 66.9 °F 96% 30.18 in 4.0 mi Calm Calm - N/A   Clear
4:53 AM 66.9 °F - 66.0 °F 97% 30.19 in 5.0 mi Calm Calm - N/A   Clear
5:53 AM 66.9 °F - 66.0 °F 97% 30.21 in 4.0 mi Calm Calm - N/A   Clear
6:53 AM 69.1 °F - 66.9 °F 93% 30.22 in 5.0 mi Calm Calm - N/A   Clear
7:53 AM 73.9 °F - 70.0 °F 87% 30.22 in 9.0 mi Calm Calm - N/A   Clear
8:53 AM 78.1 °F - 71.1 °F 79% 30.22 in 10.0 mi Calm Calm - N/A   Clear
9:53 AM 82.9 °F 87.0 °F 70.0 °F 65% 30.22 in 10.0 mi Variable 5.8 mph - N/A   Clear
10:53 AM 84.9 °F 89.4 °F 70.0 °F 61% 30.21 in 10.0 mi Calm Calm - N/A   Clear
11:53 AM 90.0 °F 96.4 °F 71.1 °F 54% 30.19 in 10.0 mi NW 4.6 mph - N/A   Unknown
12:53 PM 90.0 °F 94.5 °F 69.1 °F 50% 30.18 in - Calm Calm - N/A   Clear
1:53 PM 91.9 °F 95.9 °F 68.0 °F 45% 30.17 in 10.0 mi WNW 3.5 mph - N/A   Clear
2:53 PM 91.9 °F 95.9 °F 68.0 °F 45% 30.15 in 10.0 mi Calm Calm - N/A   Clear
3:53 PM 91.0 °F 94.3 °F 66.9 °F 45% 30.12 in 10.0 mi Variable 3.5 mph - N/A   Clear
4:53 PM 91.0 °F 94.3 °F 66.9 °F 45% 30.12 in 10.0 mi Variable 3.5 mph - N/A   Clear
5:53 PM 91.0 °F 95.2 °F 68.0 °F 47% 30.10 in 10.0 mi Variable 3.5 mph - N/A   Clear
6:53 PM 88.0 °F 93.8 °F 71.1 °F 57% 30.10 in 10.0 mi Calm Calm - N/A   Clear
7:53 PM 84.0 °F 89.6 °F 72.0 °F 67% 30.09 in 10.0 mi Calm Calm - N/A   Clear
8:53 PM 79.0 °F - 73.0 °F 82% 30.09 in 10.0 mi Calm Calm - N/A   Clear
9:53 PM 75.9 °F - 73.0 °F 91% 30.10 in 9.0 mi Calm Calm - N/A   Clear
10:53 PM 75.0 °F - 73.0 °F 94% 30.09 in 8.0 mi Calm Calm - N/A   Clear
11:53 PM 73.0 °F - 72.0 °F 96% 30.08 in 6.0 mi Calm Calm - N/A   Clear